Regional Weather Roundup
Issued by NWS

Home | Current Version | Previous Version | Text Only | Print | Product List | Glossary On
Versions: 1 2 3 4 5 6 7 8 9 10 11 12 13 14 15 16 17 18 19 20 21 22 23 24 25 26 27 28 29 30 31 32 33 34 35 36 37 38 39 40 41 42 43 44 45 46 47 48 49 50
000
ASUS44 KBMX 270010
RWRAL

ALABAMA REGIONAL WEATHER ROUNDUP
NATIONAL WEATHER SERVICE BIRMINGHAM AL
700 PM CDT THU MAR 26 2015

NOTE: "FAIR" INDICATES FEW OR NO CLOUDS BELOW 12,000 FEET
WITH NO SIGNIFICANT WEATHER AND/OR OBSTRUCTIONS TO VISIBILITY.

THE REMARK "TC" DENOTES TEMPERATURE IN DEGREES CELSIUS.

ALZ001>011-014-016>018-020-270100-
NORTH ALABAMA

CITY           SKY/WX    TMP DP  RH WIND       PRES   REMARKS
MUSCLE SHOALS  LGT RAIN  50  43  77 N8        29.93R
6HR MIN TEMP:  50; 6HR MAX TEMP:  72; 6HR PCP: TRACE;

HUNTSVILLE     CLOUDY    53  45  74 N20G30    29.89R
6HR MIN TEMP:  53; 6HR MAX TEMP:  78; 6HR PCP: TRACE;

DECATUR        LGT RAIN  51  46  83 N17G24    29.91R
6HR MIN TEMP:  51; 6HR MAX TEMP:  75; 6HR PCP: TRACE;

HALEYVILLE     RAIN      49  46  89 N13G21    29.92R
6HR MIN TEMP:  49; 6HR MAX TEMP:  75; 6HR PCP: TRACE;

GADSDEN        CLOUDY    70  55  60 SW7       29.76S
6HR MIN TEMP:  70; 6HR MAX TEMP:  75;

$$

ALZ012-013-022-023-030>036-040>044-270100-
WEST CENTRAL ALABAMA

CITY           SKY/WX    TMP DP  RH WIND       PRES   REMARKS
TUSCALOOSA     CLOUDY    71  57  61 W7        29.79R
6HR MIN TEMP:  71; 6HR MAX TEMP:  78; 6HR PCP: TRACE;

$$

ALZ015-024>027-033>036-040>044-270100-
CENTRAL ALABAMA

CITY           SKY/WX    TMP DP  RH WIND       PRES   REMARKS
BIRMINGHAM     CLOUDY    71  55  56 VRB5      29.81R
6HR MIN TEMP:  71; 6HR MAX TEMP:  77; 6HR PCP: TRACE;

MONTGOMERY     CLOUDY    72  61  68 S5        29.80R
6HR MIN TEMP:  72; 6HR MAX TEMP:  78;

SHELBY CO ARPT LGT RAIN  65  63  93 S6        29.80F
6HR MIN TEMP:  65; 6HR MAX TEMP:  76; 6HR PCP:  0.52;

MAXWELL AFB    DRIZZLE   72  63  73 S7        29.79R
6HR MIN TEMP:  72; 6HR MAX TEMP:  76;

GREENVILLE     CLOUDY    68  63  83 SW9       29.82R
6HR MIN TEMP:  68; 6HR MAX TEMP:  74; 6HR PCP:  0.01;

$$

ALZ019-021-028-029-037-038-045>048-270100-
EAST CENTRAL ALABAMA

CITY           SKY/WX    TMP DP  RH WIND       PRES   REMARKS
ANNISTON       LGT RAIN  69  57  65 SW6       29.78S
6HR MIN TEMP:  69; 6HR MAX TEMP:  74; 6HR PCP: TRACE;

ALEXANDER CITY CLOUDY    72  56  57 SW5       29.81R
6HR MIN TEMP:  69; 6HR MAX TEMP:  77;

AUBURN         CLOUDY    68  55  64 S7        29.83S
6HR MIN TEMP:  68; 6HR MAX TEMP:  72;

$$

ALZ051>064-270100-
SOUTHWEST ALABAMA

CITY           SKY/WX    TMP DP  RH WIND       PRES   REMARKS
MOBILE         CLOUDY    66  64  93 W3        29.86R
6HR MIN TEMP:  66; 6HR MAX TEMP:  68; 6HR PCP:  0.05;

BROOKLEY FIELD CLOUDY    68  64  87 SW3       29.87R
6HR MIN TEMP:  67; 6HR MAX TEMP:  69; 6HR PCP:  0.15;

EVERGREEN      CLOUDY    68  63  84 SW12      29.85R
6HR MIN TEMP:  68; 6HR MAX TEMP:  73;

$$

ALZ049-050-065>069-270100-
SOUTHEAST ALABAMA

CITY           SKY/WX    TMP DP  RH WIND       PRES   REMARKS
DOTHAN         CLOUDY    65  61  87 S6        29.84F
6HR MIN TEMP:  65; 6HR MAX TEMP:  68; 6HR PCP:  0.02;

OZARK          CLOUDY    66  60  79 S6        29.82R
6HR MIN TEMP:  66; 6HR MAX TEMP:  70;

TROY           CLOUDY    69  63  81 S9        29.82R
6HR MIN TEMP:  70; 6HR MAX TEMP:  75;

EUFAULA        CLOUDY    69  62  78 S5        29.80S
6HR MIN TEMP:  69; 6HR MAX TEMP:  75;

$$


USA.gov is the U.S. government's official web portal to all federal, state and local government web resources and services.